Chicago Executive, IL

5:02 PM CDT on April 26, 2017 (GMT -0500)
Chicago Executive

Weather History for KPWK - February, 2013

Change the Weather History Date:

Tuesday, February 19, 2013

  Actual Average Record
Temperature  
Mean Temperature 21 °F 29 °F  
Max Temperature 31 °F 36 °F 64 °F (2017)
Min Temperature 11 °F 22 °F -8 °F (2015)
Degree Days  
Heating Degree Days 44 36  
Month to date heating degree days 756 732  
Since 1 July heating degree days 4176 4429  
Cooling Degree Days 0 0  
Month to date cooling degree days 0 0  
Year to date cooling degree days 0 0  
Moisture  
Dew Point 8 °F    
Average Humidity 70    
Maximum Humidity 80    
Minimum Humidity 59    
Precipitation  
Precipitation T in 0.04 in 0.44 in (2002)
Month to date precipitation 1.13 0.64  
Year to date precipitation 4.53 2.27  
Sea Level Pressure  
Sea Level Pressure 29.86 in    
Wind  
Wind Speed 17 mph (West)    
Max Wind Speed 28 mph    
Max Gust Speed 36 mph    
Visibility 6 miles    
Events Snow    
T = Trace of Precipitation, MM = Missing Value Source: NWS Daily Summary

Daily Weather History Graph

Daily Weather History Graph

Search for Another Location

Airport or City:

Trip Planner

Search our weather history database for the weather conditions in past years. The results will help you decide how hot, cold, wet, or windy it might be!

Date:

Astronomy

Feb. 19, 2013 Rise Set
Actual Time 6:41 AM CST 5:29 PM CST
Civil Twilight 6:13 AM CST 5:58 PM CST
Nautical Twilight 5:40 AM CST 6:30 PM CST
Astronomical Twilight 5:08 AM CST 7:03 PM CST
Moon 11:57 AM CST (2/19) 2:16 AM CST (2/19)
Length of Visible Light 11h 45m
Length of Day
10h 48m
Waxing Gibbous, 67% of the Moon is Illuminated
Feb 19
Waxing Gibbous
Feb 25
Full
Mar 4
Last Quarter
Mar 11
New
Mar 19
First Quarter

Hourly Weather History & Observations

Time (CST) Temp. Windchill Dew Point Humidity Pressure Visibility Wind Dir Wind Speed Gust Speed Precip Events Conditions
12:52 AM 27.0 °F 14.3 °F 21.0 °F 78% 29.58 in 10.0 mi West 17.3 mph 28.8 mph 0.00 in   Overcast
1:52 AM 24.1 °F 9.8 °F 17.1 °F 75% 29.62 in 10.0 mi West 19.6 mph 32.2 mph N/A   Overcast
2:52 AM 23.0 °F 8.7 °F 17.1 °F 78% 29.65 in 10.0 mi West 18.4 mph 27.6 mph N/A   Overcast
3:52 AM 19.9 °F 5.2 °F 14.0 °F 78% 29.68 in 7.0 mi West 17.3 mph 23.0 mph 0.00 in Snow Light Snow
4:45 AM 19.4 °F 6.6 °F 14.0 °F 80% 29.68 in 1.8 mi West 12.7 mph 20.7 mph 0.00 in Snow Light Snow
4:52 AM 19.0 °F 5.0 °F 12.9 °F 77% 29.70 in 1.8 mi West 15.0 mph 25.3 mph 0.00 in Snow Light Snow
4:57 AM 17.6 °F 2.2 °F 12.2 °F 79% 29.68 in 3.0 mi West 17.3 mph 26.5 mph 0.00 in Snow Light Snow
5:52 AM 17.1 °F 3.0 °F 10.9 °F 77% 29.73 in 2.5 mi West 13.8 mph 25.3 mph 0.00 in Snow Light Snow
6:32 AM 15.8 °F -0.2 °F 10.4 °F 79% 29.72 in 1.8 mi West 17.3 mph 26.5 mph 0.00 in Snow Light Snow
6:52 AM 15.1 °F -2.9 °F 8.1 °F 74% 29.75 in 1.5 mi West 21.9 mph 32.2 mph 0.00 in Snow Light Snow
7:24 AM 15.8 °F -0.6 °F 8.6 °F 73% 29.75 in 1.0 mi West 18.4 mph 32.2 mph 0.00 in Snow Light Snow
7:37 AM 14.0 °F -3.4 °F 8.6 °F 79% 29.76 in 0.8 mi West 19.6 mph 33.4 mph 0.00 in Snow Light Snow
7:52 AM 14.0 °F -5.8 °F 7.0 °F 74% 29.79 in 0.8 mi West 26.5 mph 33.4 mph 0.00 in   Haze
7:59 AM 14.0 °F -3.4 °F 6.8 °F 73% 29.77 in 4.0 mi West 19.6 mph 33.4 mph N/A   Haze
8:07 AM 15.8 °F -1.1 °F 6.8 °F 68% 29.77 in 7.0 mi West 19.6 mph 32.2 mph N/A   Mostly Cloudy
8:18 AM 15.8 °F -1.1 °F 6.8 °F 68% 29.77 in 2.5 mi West 19.6 mph 27.6 mph 0.00 in Snow Light Snow
8:31 AM 14.0 °F -4.3 °F 5.0 °F 67% 29.78 in 6.0 mi West 21.9 mph 32.2 mph 0.00 in   Haze
8:52 AM 15.1 °F -2.5 °F 7.0 °F 70% 29.82 in 2.5 mi West 20.7 mph 29.9 mph 0.00 in Snow Light Snow
9:10 AM 14.0 °F -3.9 °F 6.8 °F 73% 29.80 in 4.0 mi West 20.7 mph 28.8 mph 0.00 in Snow Light Snow
9:52 AM 15.1 °F -1.1 °F 6.1 °F 68% 29.86 in 7.0 mi West 17.3 mph 25.3 mph 0.00 in   Overcast
10:52 AM 16.0 °F -0.4 °F 5.0 °F 62% 29.88 in 10.0 mi West 18.4 mph 32.2 mph N/A   Overcast
12:52 PM 15.1 °F -2.5 °F 5.0 °F 64% 29.93 in 6.0 mi West 20.7 mph 29.9 mph 0.00 in   Haze
1:52 PM 15.1 °F -1.6 °F 5.0 °F 64% 29.95 in 7.0 mi West 18.4 mph 29.9 mph N/A   Overcast
2:52 PM 15.1 °F -2.0 °F 5.0 °F 64% 29.99 in 9.0 mi WNW 19.6 mph 28.8 mph N/A   Overcast
3:52 PM 15.1 °F -2.9 °F 3.9 °F 61% 30.02 in 10.0 mi West 21.9 mph 31.1 mph 0.00 in   Overcast
4:52 PM 15.1 °F -0.1 °F 3.9 °F 61% 30.05 in 10.0 mi WNW 15.0 mph 24.2 mph N/A   Overcast
6:52 PM 15.1 °F 1.1 °F 5.0 °F 64% 30.12 in 10.0 mi West 12.7 mph 21.9 mph N/A   Overcast
7:52 PM 14.0 °F -2.5 °F 5.0 °F 67% 30.13 in 10.0 mi WNW 17.3 mph 24.2 mph N/A   Overcast
8:52 PM 12.9 °F -0.9 °F 3.9 °F 67% 30.17 in 10.0 mi WNW 11.5 mph - N/A   Mostly Cloudy
9:52 PM 12.9 °F -0.2 °F 3.9 °F 67% 30.19 in 10.0 mi WNW 10.4 mph - N/A   Overcast
10:52 PM 12.0 °F -5.6 °F -0.0 °F 59% 30.19 in 10.0 mi NW 18.4 mph 25.3 mph N/A   Clear
11:52 PM 10.9 °F -3.4 °F -0.0 °F 61% 30.21 in 10.0 mi NW 11.5 mph 20.7 mph N/A   Clear